This demonstration page uses our WeatherBlox Daily Observations layout. Learn more.

Left ArrowRight Arrow

Hourly Observations for January 24, 2022

Temp ( °F °C ) Dew Point ( °F °C ) Humidity (%) Winds ( mph kmh ) Pressure ( in mb ) Visibility ( mi km ) Precip ( " mm )
12:52 am 00:52 Cloudy 31 -0.6 24 -4.4 76 76 SE 8 13 29.69 1006 10 16 0.00 0.00
1:52 am 01:52 Cloudy 32 0 25 -3.9 75 75 SSE 6 9 29.69 1005 10 16 0.00 0.00
2:52 am 02:52 Cloudy 32 0 26 -3.3 79 79 SSE 6 9 29.69 1005 10 16 0.00 0.00
3:52 am 03:52 Cloudy 33 0.6 27 -2.8 78 78 Calm 29.68 1005 10 16 0.00 0.00
4:52 am 04:52 Cloudy 34 1.1 28 -2.2 79 79 SE 5 7 29.68 1005 10 16 0.00 0.00
5:52 am 05:52 Cloudy 39 3.9 28 -2.2 65 65 NW 5 7 29.69 1005 10 16 0.00 0.00
6:52 am 06:52 Cloudy 37 2.8 28 -2.2 70 70 N 8 13 29.72 1006 10 16 0.00 0.00
7:52 am 07:52 Cloudy 36 2.2 29 -1.7 76 76 N 7 11 29.75 1007 10 16 0.00 0.00
8:47 am 08:47 Cloudy 37 3 30 -1 75 75 N 12 19 29.80 1009 10 16 0.00 0.00
8:52 am 08:52 Cloudy 38 3.3 31 -0.6 76 76 NNW 14 22 29.78 1009 10 16 0.00 0.00
9:52 am 09:52 Cloudy 38 3.3 32 0 79 79 N 8 13 29.83 1010 10 16 0.00 0.00
10:52 am 10:52 Cloudy 39 3.9 31 -0.6 73 73 NNW 15 24 29.86 1011 10 16 0.00 0.00
11:52 am 11:52 Cloudy 36 2.2 26 -3.3 67 67 NNW 22 35 29.90 1013 10 16 0.00 0.00
12:52 pm 12:52 Mostly Cloudy 31 -0.6 21 -6.1 67 67 N 23 37 29.94 1014 10 16 0.00 0.00
1:15 pm 13:15 Mostly Cloudy 31 -0.6 20 -6.7 64 64 N 22 35 29.97 1015 10 16 0.00 0.00
1:52 pm 13:52 Mostly Cloudy 31 -0.6 17 -8.3 56 56 N 24 39 29.97 1015 10 16 0.00 0.00
2:52 pm 14:52 Mostly Sunny 30 -1.1 14 -10 51 51 N 23 37 29.98 1015 10 16 0.00 0.00
3:52 pm 15:52 Mostly Sunny 28 -2.2 13 -10.6 53 53 NNW 18 30 30.03 1017 10 16 0.00 0.00
4:52 pm 16:52 Mostly Sunny 25 -3.9 12 -11.1 58 58 NNW 16 26 30.08 1019 10 16 0.00 0.00
5:52 pm 17:52 Mostly Clear 22 -5.6 10 -12.2 60 60 NNW 13 20 30.11 1020 10 16 0.00 0.00
6:52 pm 18:52 Mostly Clear 20 -6.7 9 -12.8 62 62 N 12 19 30.14 1021 10 16 0.00 0.00
7:52 pm 19:52 Clear 18 -7.8 7 -13.9 62 62 N 12 19 30.18 1022 10 16 0.00 0.00
8:52 pm 20:52 Clear 16 -8.9 6 -14.4 65 65 NNE 13 20 30.20 1023 10 16 0.00 0.00
9:52 pm 21:52 Clear 14 -10 4 -15.6 64 64 N 9 15 30.24 1024 10 16 0.00 0.00
10:52 pm 22:52 Clear 11 -11.7 3 -16.1 70 70 N 9 15 30.25 1025 10 16 0.00 0.00
11:52 pm 23:52 Clear 10 -12.2 2 -16.7 69 69 N 6 9 30.28 1025 10 16 0.00 0.00

Powered by AerisWeather